Location: Haulchin
(50.3172°N, 3.4360°E)
Time: 21:37:24
(UTC+00:00)

Cosmos 2333 Rocket - Pass Details

Date: 13 August 2024
Orbit: 838 x 863 km, 70.8° (Epoch: 09 September)

Event Time Altitude Azimuth Distance (km) Brightness Sun altitude
Exits shadow 02:27:13 - 274° (W) 2,636 4.4 -16.7°
Reaches altitude 10° 02:27:42 10° 277° (W) 2,503 4.3 -16.6°
Maximum altitude 02:31:55 21° 325° (NW) 1,874 4.1 -16.2°
Drops below altitude 10° 02:36:10 10° 12° (NNE) 2,515 5.6 -15.7°
Sets 02:39:20 0° 29° (NNE) 3,455 7.0 -15.4°
